Starlink 11123

operational
NORAD ID: 59948 Int'l Des: 2024-107 Owner: SPXS Country: US Constellation: starlink
LEOCIRCULAR

About Starlink 11123

Description loading...

Live Position

Loading 3D Globe...

Upcoming Passes

Altitude History

Altitude vs Time

uPlot chart will show altitude changes over time

Two-Line Element Set

1 59948U 24107D 26093.39582062 -.00008944 00000-0 -69133-4 0 9997
2 59948 53.1574 129.6690 0001129 78.5530 281.5615 15.69678376106087
Epoch: Apr 3, 2026 • Age: 20 hours

Current Status

Altitude 365.4 km
Velocity 7.70 km/s
Sub-Earth Point 52.07°N, 46.84°W
Launch Date Jun 5, 2024
Age 1.8 years
Type internet

Technical Details

Classification Payload
Mass 960.00 kg
Dry Mass 910.00 kg
Total Mass 960.00 kg
Length 0.30 m
Diameter 4.10 m
Span 29.00 m
Shape Box + pan
Manufacturer SPXS
Bus Type Starlink V2MD
Phase Status In Orbit
Owner/State SPXS/US

Large Constellations

Loading constellations...